Temp
8 8 8 9 9 9 9 9 9 9 8 8 8 8 8 8 8 8 8 8 8 8 8 8 8 8 8 8 7 6 4 4
7 7 8 8 9 8 9 9 8 7 7 7 7 7 7 7 7 7 7 7 7 7 7 7 7 8 7 7 7 7 4 2
6 6 7 7 8 7 7 7 7 7 6 6 6 6 7 7 7 6 6 6 7 7 6 6 6 6 6 6 6 6 4 1
5 5 6 6 6 7 6 6 6 6 6 6 6 6 6 6 6 6 6 6 6 6 6 5 5 5 5 5 4 3 3 0
4 4 5 6 7 6 6 5 5 5 5 5 6 6 5 5 5 5 5 5 5 5 5 4 4 4 3 3 3 2 1 0
4 5 6 7 6 6 5 5 5 5 4 4 4 5 5 4 4 4 4 4 4 4 3 3 3 3 2 2 2 2 1 -0
4 5 6 6 5 5 5 5 5 4 4 4 4 4 4 4 4 3 3 2 3 3 2 2 2 2 2 1 1 1 0 -1
4 5 5 5 4 4 4 3 3 3 3 3 4 3 3 3 3 3 2 2 2 2 2 1 1 1 1 0 0 -0 -1 -1
4 4 3 3 4 3 3 2 2 3 3 3 2 2 2 2 2 1 1 1 1 1 1 0 1 1 0 -0 0 -0 -1 -1
2 3 4 4 3 3 2 2 2 2 2 1 1 1 2 2 1 1 1 0 0 0 0 0 0 -0 -1 -1 -1 -1 -1 -2
3 4 4 4 3 2 1 1 1 1 1 1 1 1 1 0 0 0 0 -0 -0 -1 -1 -1 -1 -1 -1 -1 -1 -1 -1 -2
4 4 4 3 2 2 2 2 2 2 1 1 -0 -1 -1 -0 -0 -0 -0 -1 -1 -2 -2 -2 -2 -2 -2 -2 -2 -2 -2 -3
5 5 4 3 2 2 2 1 1 0 0 -1 -1 -1 -1 -1 -1 -1 -1 -2 -3 -3 -3 -3 -2 -2 -3 -2 -2 -2 -2 -3
5 5 4 3 2 2 2 1 0 -0 -1 -1 -1 -2 -2 -2 -2 -2 -2 -3 -3 -3 -3 -3 -3 -3 -3 -3 -3 -3 -3 -3
7 5 4 3 2 2 1 0 -0 -0 -1 -2 -2 -2 -3 -3 -3 -3 -3 -4 -4 -4 -4 -3 -3 -3 -4 -4 -4 -4 -4 -4
7 6 4 2 1 0 0 -0 -1 -1 -2 -2 -3 -3 -4 -4 -4 -4 -4 -4 -4 -4 -4 -4 -4 -4 -4 -5 -5 -5 -5 -5
6 5 3 2 1 1 0 -0 -1 -2 -2 -3 -4 -4 -4 -4 -4 -4 -5 -4 -4 -5 -5 -5 -4 -5 -5 -5 -5 -5 -5 -5
6 5 3 2 1 1 0 -1 -1 -2 -3 -4 -4 -5 -4 -4 -5 -5 -5 -5 -5 -5 -5 -5 -5 -5 -6 -6 -5 -6 -6 -6
6 4 3 0 0 -0 -0 -1 -2 -2 -4 -4 -5 -5 -5 -5 -5 -5 -5 -5 -5 -5 -5 -5 -5 -6 -6 -6 -6 -7 -7 -7
Height
1507 1510 1513 1514 1515 1517 1518 1520 1520 1520 1520 1520 1520 1520 1519 1519 1519 1518 1516 1515 1513 1511 1509 1506 1502 1498 1494 1490 1485 1480 1474 1468
1505 1507 1510 1513 1514 1515 1516 1518 1518 1519 1519 1520 1520 1520 1520 1519 1519 1518 1516 1514 1512 1511 1508 1505 1501 1498 1494 1490 1486 1479 1473 1466
1502 1506 1509 1512 1514 1515 1515 1516 1517 1517 1518 1518 1519 1519 1518 1518 1517 1516 1514 1513 1511 1509 1507 1504 1500 1497 1493 1489 1484 1479 1474 1468
1499 1504 1507 1511 1513 1514 1515 1515 1515 1516 1518 1518 1518 1517 1517 1517 1516 1515 1514 1512 1511 1508 1505 1504 1500 1496 1492 1487 1484 1480 1475 1471
1497 1501 1506 1509 1511 1513 1514 1514 1515 1516 1517 1517 1516 1515 1515 1515 1515 1513 1513 1511 1509 1507 1505 1503 1500 1496 1492 1488 1483 1480 1476 1472
1495 1500 1505 1508 1510 1511 1512 1513 1514 1515 1516 1516 1515 1514 1516 1515 1513 1513 1511 1511 1510 1507 1505 1502 1499 1496 1493 1490 1484 1481 1477 1473
1496 1500 1501 1504 1507 1509 1510 1512 1513 1513 1514 1515 1514 1514 1515 1515 1513 1512 1509 1511 1508 1505 1503 1501 1499 1496 1493 1489 1486 1482 1478 1476
1490 1495 1498 1501 1503 1507 1509 1511 1511 1510 1511 1513 1513 1514 1514 1514 1512 1511 1511 1510 1507 1504 1503 1502 1498 1496 1493 1491 1487 1483 1480 1476
1489 1494 1495 1498 1503 1505 1509 1509 1510 1509 1510 1511 1511 1513 1514 1513 1511 1511 1509 1508 1506 1504 1503 1502 1500 1497 1495 1492 1489 1485 1481 1478
1485 1488 1491 1497 1500 1503 1504 1507 1507 1509 1509 1510 1511 1513 1513 1511 1510 1510 1509 1507 1507 1506 1505 1503 1501 1498 1496 1493 1490 1486 1482 1479
1481 1485 1490 1494 1497 1501 1502 1504 1505 1507 1507 1509 1510 1513 1511 1511 1510 1509 1509 1508 1508 1507 1506 1504 1501 1500 1497 1494 1491 1487 1484 1481
1477 1482 1487 1490 1494 1497 1500 1502 1503 1505 1506 1508 1510 1511 1511 1510 1510 1509 1509 1508 1508 1508 1506 1505 1502 1500 1498 1495 1492 1489 1486 1483
1474 1479 1482 1485 1490 1493 1497 1499 1501 1503 1505 1506 1508 1510 1510 1510 1509 1509 1508 1509 1508 1508 1507 1505 1503 1501 1498 1496 1494 1491 1489 1485
1470 1473 1476 1479 1484 1489 1492 1495 1497 1499 1502 1504 1507 1509 1509 1509 1509 1508 1509 1509 1509 1508 1507 1505 1503 1501 1500 1498 1495 1493 1491 1488
1462 1465 1468 1472 1477 1482 1487 1491 1494 1497 1500 1503 1506 1507 1508 1508 1508 1508 1509 1509 1509 1509 1507 1506 1504 1503 1501 1500 1498 1496 1493 1491
1455 1456 1459 1464 1471 1477 1482 1486 1490 1494 1497 1501 1504 1505 1506 1507 1508 1508 1509 1509 1509 1508 1508 1507 1506 1505 1503 1501 1500 1498 1495 1493
1446 1448 1451 1455 1463 1470 1477 1482 1486 1490 1495 1499 1502 1503 1505 1506 1507 1508 1509 1510 1509 1509 1508 1508 1507 1505 1504 1503 1501 1500 1497 1495
1437 1440 1443 1449 1457 1465 1471 1477 1483 1488 1493 1497 1500 1502 1504 1505 1507 1508 1509 1509 1509 1509 1509 1508 1507 1506 1505 1504 1502 1501 1499 1496
1433 1435 1439 1446 1454 1462 1468 1474 1480 1486 1490 1494 1497 1500 1502 1504 1506 1507 1508 1508 1509 1509 1509 1509 1508 1507 1506 1505 1504 1502 1500 1498
Wind_Speed
22 20 17 13 9 7 4 3 3 3 2 1 1 2 3 4 5 7 8 10 12 14 16 18 20 23 26 29 30 29 28 29
25 23 19 14 11 7 4 4 3 3 2 1 2 2 3 4 5 7 8 10 11 13 14 16 19 21 24 27 30 32 29 30
27 24 20 15 10 6 5 4 2 1 2 2 2 1 4 5 7 8 9 11 12 13 15 16 17 19 20 24 29 32 30 26
29 26 22 16 11 8 6 3 3 3 2 2 1 2 4 5 6 8 9 11 12 13 14 16 16 17 19 22 26 29 29 25
26 26 20 15 13 10 6 4 4 4 5 4 3 1 2 4 5 7 9 11 12 13 13 13 14 16 18 21 23 27 27 26
29 26 20 17 15 11 6 5 5 5 4 3 2 2 2 3 6 8 9 10 10 10 11 12 13 15 17 19 21 24 26 25
27 24 23 21 17 13 9 8 8 5 4 2 1 1 3 4 5 6 7 8 9 11 12 13 13 14 15 17 18 20 23 24
31 31 28 25 21 16 11 11 7 6 3 2 1 1 2 3 5 6 6 8 10 11 12 13 14 15 16 16 17 18 20 22
31 31 29 26 19 15 14 9 6 4 4 4 2 1 2 3 4 6 7 9 11 13 13 13 13 14 14 15 16 17 18 19
28 31 29 24 20 17 13 8 7 6 5 4 2 1 2 3 4 5 7 9 10 11 11 12 13 14 14 15 16 18 18 19
29 30 28 25 21 18 14 11 8 7 5 4 3 2 1 3 4 5 6 7 8 9 10 12 13 13 15 16 17 19 19 20
29 29 27 25 23 20 16 12 9 9 9 8 6 3 2 3 4 4 5 6 7 8 10 11 12 14 16 17 18 19 20 20
26 27 27 28 26 23 19 15 14 12 11 8 5 3 2 3 3 4 5 6 7 7 9 10 12 14 16 17 18 19 20 21
26 29 33 31 29 26 22 18 16 14 12 9 6 5 3 3 4 5 6 6 7 8 8 10 12 15 16 17 18 18 19 20
29 33 35 34 33 29 24 20 18 16 14 11 9 7 5 4 5 6 6 7 7 8 9 10 12 13 15 17 17 17 18 19
24 29 34 35 35 31 26 23 20 19 16 13 11 9 7 5 5 6 6 7 8 9 10 10 11 12 15 16 17 17 18 19
26 26 28 34 37 33 29 25 23 21 18 14 12 10 8 7 7 7 8 8 9 9 10 10 11 13 14 15 15 17 18 19
19 21 24 29 37 35 31 27 24 21 18 15 14 12 10 9 9 9 8 9 9 9 9 9 10 11 13 14 15 16 17 19
11 14 18 25 33 33 29 25 24 22 18 19 16 13 11 11 11 9 9 9 8 8 8 8 8 9 11 12 14 15 16 17
Wind_Direction
186 186 185 184 188 202 205 248 272 266 264 292 357 36 60 51 25 17 14 10 11 12 10 9 8 7 8 9 8 2 354 346
190 191 191 191 197 201 208 244 245 223 208 186 134 107 70 32 19 15 7 6 5 2 1 1 3 6 9 11 11 9 3 353
193 192 189 191 200 196 214 231 246 232 196 174 149 65 19 10 4 359 359 356 350 348 349 353 359 4 7 11 13 13 15 4
190 188 188 188 192 200 212 221 217 219 204 198 269 340 346 347 348 351 352 348 345 347 347 349 354 1 6 10 14 15 15 18
188 188 184 188 201 209 209 211 214 216 203 199 215 263 314 331 352 358 355 354 354 351 348 348 351 360 5 9 14 16 16 14
194 189 189 198 207 209 208 215 224 217 214 220 259 331 329 1 10 4 2 357 358 360 5 9 8 9 10 11 16 18 18 16
197 192 195 204 204 203 210 218 212 199 211 229 328 4 11 14 14 14 16 10 12 16 18 17 18 19 20 20 20 19 21 19
194 196 199 205 202 202 205 205 188 187 183 200 216 20 18 20 27 19 27 25 27 29 28 26 26 25 24 23 21 22 22 23
198 201 201 202 201 204 207 193 194 191 190 193 174 134 53 31 26 33 32 33 34 34 32 30 30 30 29 28 28 26 24 26
200 203 206 205 206 208 199 199 209 204 194 180 157 97 28 22 38 41 40 42 42 39 36 35 35 35 35 33 34 33 32 33
204 210 210 210 209 208 200 208 208 206 193 198 211 226 61 55 52 50 52 52 49 47 44 42 42 43 42 40 41 40 40 40
211 213 213 213 209 208 207 212 216 213 208 205 197 182 98 62 63 65 67 64 59 56 53 51 53 51 48 45 46 45 44 42
219 220 218 213 210 207 209 213 211 202 200 192 185 181 126 91 84 85 82 75 66 62 59 56 58 58 53 50 47 45 45 43
229 226 222 217 212 209 210 209 205 200 196 193 189 185 155 114 102 97 93 87 77 67 65 61 59 59 54 50 48 47 46 44
234 228 226 221 214 210 207 204 202 200 194 190 188 185 164 132 115 110 102 92 83 79 72 65 63 61 59 53 49 48 49 47
235 234 227 218 210 205 202 202 198 201 194 191 183 175 162 148 134 123 110 99 93 87 79 73 70 68 63 58 53 50 49 46
252 239 228 217 208 202 202 198 200 196 192 188 184 176 166 157 149 134 120 107 95 88 86 81 73 67 63 58 54 51 51 50
247 236 225 213 204 201 200 197 191 191 185 196 187 178 172 164 155 143 129 113 102 96 90 82 72 65 61 55 50 48 47 47
230 221 212 204 198 198 198 190 186 189 194 193 187 180 176 166 159 148 136 123 112 102 91 81 71 64 57 51 47 44 42 42